Weather History for KMCK - October, 2012

Change the Weather History Date:

Thursday, October 4, 2012

  Actual Average Record
Temperature  
Mean Temperature 47 °F 56 °F  
Max Temperature 57 °F 71 °F 96 °F (1967)
Min Temperature 36 °F 41 °F 32 °F (1911)
Degree Days  
Heating Degree Days 18    
Moisture  
Dew Point 29 °F    
Average Humidity 51    
Maximum Humidity 67    
Minimum Humidity 29    
Precipitation  
Precipitation 0.00 in 0.06 in - ()
Month to date precipitation 0.01 0.24  
Year to date precipitation 7.60 19.39  
Sea Level Pressure  
Sea Level Pressure 30.29 in    
Wind  
Wind Speed 17 mph (North)    
Max Wind Speed 24 mph    
Max Gust Speed 33 mph    
Visibility 10 miles    
Events Thunderstorm    
T = Trace of Precipitation, MM = Missing Value Source: NWS Daily Summary

Daily Weather History Graph

Daily Weather History Graph

Search for Another Location

Airport or City:

Trip Planner

Search our weather history database for the weather conditions in past years. The results will help you decide how hot, cold, wet, or windy it might be!

Date:

Astronomy

Oct. 04, 2012 Rise Set
Actual Time 7:42 AM CDT 7:18 PM CDT
Civil Twilight 7:15 AM CDT 7:45 PM CDT
Nautical Twilight 6:43 AM CDT 8:17 PM CDT
Astronomical Twilight 6:11 AM CDT 8:48 PM CDT
Moon 9:55 PM CDT (10/4) 12:01 PM CDT (10/4)
Length of Visible Light 12h 30m
Length of Day
11h 36m
Waning Gibbous, 82% of the Moon is Illuminated
Oct 4
Waning Gibbous
Oct 8
Last Quarter
Oct 15
New
Oct 21
First Quarter
Oct 29
Full

Hourly Weather History & Observations

Time (CDT) Temp. Windchill Dew Point Humidity Pressure Visibility Wind Dir Wind Speed Gust Speed Precip Events Conditions
12:06 AM 50.0 °F - 35.6 °F 58% 30.17 in 10.0 mi North 23.0 mph 29.9 mph N/A Thunderstorm Overcast
12:21 AM 48.2 °F - 37.4 °F 66% 30.16 in 10.0 mi North 17.3 mph 25.3 mph 0.00 in   Mostly Cloudy
12:53 AM 46.9 °F - 34.0 °F 61% 30.15 in 10.0 mi NNW 24.2 mph 33.4 mph 0.00 in   Clear
1:53 AM 45.0 °F 38.2 °F 33.1 °F 63% 30.17 in 10.0 mi NNW 15.0 mph - N/A   Clear
2:53 AM 43.0 °F 34.2 °F 30.9 °F 62% 30.19 in 10.0 mi NNW 20.7 mph - N/A   Clear
3:53 AM 42.1 °F 34.5 °F 30.0 °F 62% 30.21 in 10.0 mi NNW 15.0 mph - N/A   Clear
4:53 AM 42.1 °F 33.1 °F 30.0 °F 62% 30.22 in 10.0 mi NNW 20.7 mph 27.6 mph N/A   Clear
5:53 AM 41.0 °F 32.5 °F 30.0 °F 65% 30.25 in 10.0 mi NNW 17.3 mph - N/A   Overcast
6:53 AM 39.0 °F 31.0 °F 28.9 °F 67% 30.29 in 10.0 mi NW 13.8 mph - N/A   Scattered Clouds
7:53 AM 39.0 °F 29.9 °F 28.9 °F 67% 30.32 in 10.0 mi NNW 17.3 mph - N/A   Clear
8:53 AM 41.0 °F 31.9 °F 28.9 °F 62% 30.34 in 10.0 mi NNW 19.6 mph 25.3 mph N/A   Clear
9:53 AM 45.0 °F 36.9 °F 28.0 °F 52% 30.36 in 10.0 mi NNW 20.7 mph 26.5 mph N/A   Clear
10:53 AM 48.0 °F - 27.0 °F 44% 30.38 in 10.0 mi North 18.4 mph 28.8 mph N/A   Clear
11:53 AM 50.0 °F - 26.1 °F 39% 30.37 in 10.0 mi NNW 19.6 mph 25.3 mph N/A   Clear
12:53 PM 53.1 °F - 27.0 °F 37% 30.36 in 10.0 mi North 11.5 mph 20.7 mph N/A   Clear
1:53 PM 54.0 °F - 26.1 °F 34% 30.34 in 10.0 mi NNW 12.7 mph 18.4 mph N/A   Clear
2:53 PM 55.9 °F - 26.1 °F 32% 30.31 in 10.0 mi NNE 8.1 mph 20.7 mph N/A   Clear
3:53 PM 55.9 °F - 26.1 °F 32% 30.30 in 10.0 mi North 11.5 mph - N/A   Clear
4:53 PM 55.9 °F - 24.1 °F 29% 30.28 in 10.0 mi North 11.5 mph - N/A   Clear
5:53 PM 55.9 °F - 24.1 °F 29% 30.28 in 10.0 mi NE 9.2 mph - N/A   Clear
6:53 PM 52.0 °F - 25.0 °F 35% 30.30 in 10.0 mi NNE 9.2 mph - N/A   Clear
7:53 PM 48.9 °F - 27.0 °F 43% 30.32 in 10.0 mi NE 6.9 mph - N/A   Clear
8:53 PM 46.9 °F - 27.0 °F 46% 30.34 in 10.0 mi NNE 8.1 mph - N/A   Clear
9:53 PM 42.1 °F 36.6 °F 27.0 °F 55% 30.35 in 10.0 mi NNE 9.2 mph - N/A   Clear
10:53 PM 39.0 °F 32.8 °F 27.0 °F 62% 30.36 in 10.0 mi NNE 9.2 mph - N/A   Clear
11:53 PM 39.9 °F 33.9 °F 27.0 °F 60% 30.36 in 10.0 mi NE 9.2 mph - N/A   Clear